CZ-3B DEB, 40161

Orbit data source: Space-Track

CZ-3B DEB, 40161 is space debris originally from a launch on Sat, 04 Sep 2010 UTC launched from the Xichang Space Center, China (XSC). Debris objects in space refer to the collection of defunct objects orbiting the Earth. Examples of debris include non-operational satellites, rocket bodies, and fragments generated from explosions, collisions, or faulty payload assembly.

Loading next visibility...
CZ-3B DEB details
Identifier
40161, 2010-042N
Orbit
Molniya
Last TLE update1 week ago
Origin
Flag of CNCASC (CN / PRC)
ManufacturerCALT
MissionSpacecraft
Bus & MotorUnknown
MassUnknown
Launch date (UTC)
2010-09-04 (14 years ago)
Launch vehicleUnknown
Launch site
Xichang Space Center, China (XSC)
Object type
Payload
Rocket body
Debris
Shape & HBRUnknown
Radar Cross SectionMedium (>0.1 m² and <1 m²)

Expand to show TLE details & history

TLE from 1 week ago
0 CZ-3B DEB
1 40161U 10042N   24328.02646400  .00001027  00000-0  12310-1 0  9998
2 40161  27.1053 166.8056 7409823 101.1054   3.5667  1.99622977 80118
Epoch: 2024-11-23T00:38Z
Definitive object data (Epoch: 2024-11-23T00:38:06.489Z)
Latitude18.68949°
Longitude-126.23712°
Altitude1,066.781 km
Speed9.599 km/s
True Right ascension20h 23m 06s
True Declination18° 35' 23"
Sunlit
Object was in daylight at TLE epoch
Visualization TLE readout
Latitude-24.69952°
Longitude28.0561°
Altitude38,802.091 km
Speed1.639 km/s
Apparent Right ascension06h 46m 46s
Apparent Declination-32° 18' 04"
Sunlit
Object is in daylight
Visualization observer readout
Local Sidereal Time05:51:43
Azimuth167.881° S
Elevation16.666°
Doppler factor1
Orbital elements
Apogee altitude40,014.677 km
Perigee altitude524.035 km
Semi-major axis26,647.493 km
Eccentricity0.7409823
Inclination27.1053°
RAAN166.8056°
Arg. of periapsis101.1054°
True anomaly33.92529°
Mean anomaly3.5667°
Eccentric anomaly13.42003°
Mean motion0.49895 °/min
BSTAR0.01231
Orbital period721.51 mins
Loading maneuver chart data...
Loading historical data...
Loading historical data...
Loading historical data...
Loading historical data...
Loading historical data...
Loading historical data...
Loading historical data...

CZ-3B DEB Visibility forecast

Observer location: undefined°, undefined

Span
Click to sort rows by Start time (UTC) header in descending order
Start Az.
Max El. time (UTC)
Max El. Az.
Max El.
End time (UTC)
End Az.
270 mins2024-12-02 08:05:32.608Z167.884° S2024-12-02 12:09:32.608Z167.278° S23.885°2024-12-02 12:35:32.608Z121.8° SE
10 mins2024-12-03 01:15:32.608Z186.878° SSW2024-12-03 01:18:32.608Z178.263° S11.01°2024-12-03 01:25:32.608Z165.402° S
137 mins2024-12-03 05:48:32.608Z153.366° SSE2024-12-03 08:05:32.608Z168.935° S16.198°2024-12-03 08:05:32.608Z168.935° S
|